• In Lithuania
  • List of Countries
  • For 7 days
  • Water Temperature
  • Satellite Maps
  • Weather Map
  • Weather Widgets
  • user-avatar
    Login

    Hourly Weather Ganja

    Today, 21 July, Friday

    Time Temperature Precipitation Wind Pressure Humidity
    00:00 +27°C° 0 mm 2 mps 722 mmHg 35%
    01:00 +27°C° 0 mm 2 mps 722 mmHg 35%
    02:00 +26°C° 0 mm 2 mps 723 mmHg 35%
    03:00 +27°C° 0 mm 2 mps 721 mmHg 36%
    04:00 +27°C° 0 mm 2 mps 722 mmHg 38%
    05:00 +27°C° 0 mm 2 mps 722 mmHg 39%
    06:00 +27°C° 0 mm 2 mps 722 mmHg 41%
    07:00 +29°C° 0 mm 2 mps 722 mmHg 37%
    08:00 +31°C° 0 mm 2 mps 723 mmHg 33%
    09:00 +32°C° 0 mm 2 mps 723 mmHg 30%
    10:00 +35°C° 0 mm 2 mps 723 mmHg 27%
    11:00 +36°C° 0 mm 3 mps 723 mmHg 25%
    12:00 +37°C° 0 mm 3 mps 722 mmHg 23%
    13:00 +38°C° 0 mm 3 mps 722 mmHg 22%
    14:00 +38°C° 0 mm 4 mps 722 mmHg 21%
    15:00 +40°C° 0 mm 5 mps 722 mmHg 19%
    16:00 +39°C° 0 mm 5 mps 722 mmHg 21%
    17:00 +39°C° 0 mm 5 mps 722 mmHg 23%
    18:00 +37°C° 0 mm 4 mps 722 mmHg 24%
    19:00 +35°C° 0 mm 4 mps 723 mmHg 26%
    20:00 +33°C° 0 mm 4 mps 723 mmHg 27%
    21:00 +30°C° 0 mm 4 mps 724 mmHg 29%
    22:00 +29°C° 0 mm 4 mps 724 mmHg 30%
    23:00 +29°C° 0 mm 3 mps 724 mmHg 30%

    Tomorrow, 22 July, Saturday

    Time Temperature Precipitation Wind Pressure Humidity
    00:00 +28°C° 0 mm 3 mps 724 mmHg 31%
    01:00 +27°C° 0 mm 3 mps 724 mmHg 31%
    02:00 +27°C° 0 mm 2 mps 724 mmHg 31%
    03:00 +26°C° 0 mm 2 mps 724 mmHg 31%
    04:00 +26°C° 0 mm 2 mps 724 mmHg 32%
    05:00 +27°C° 0 mm 2 mps 724 mmHg 33%
    06:00 +27°C° 0 mm 2 mps 725 mmHg 33%
    07:00 +29°C° 0 mm 2 mps 725 mmHg 31%
    08:00 +30°C° 0 mm 2 mps 724 mmHg 28%
    09:00 +32°C° 0 mm 2 mps 724 mmHg 25%
    10:00 +34°C° 0 mm 2 mps 724 mmHg 24%
    11:00 +36°C° 0 mm 3 mps 724 mmHg 23%
    12:00 +37°C° 0 mm 4 mps 724 mmHg 22%
    13:00 +38°C° 0 mm 4 mps 723 mmHg 21%
    14:00 +38°C° 0 mm 4 mps 723 mmHg 21%
    15:00 +40°C° 0 mm 5 mps 723 mmHg 21%
    16:00 +39°C° 0 mm 5 mps 723 mmHg 22%
    17:00 +38°C° 0 mm 4 mps 722 mmHg 24%
    18:00 +37°C° 0 mm 4 mps 722 mmHg 26%
    19:00 +35°C° 0 mm 4 mps 723 mmHg 28%
    20:00 +33°C° 0 mm 4 mps 723 mmHg 30%
    21:00 +30°C° 0 mm 4 mps 723 mmHg 31%
    22:00 +29°C° 0 mm 3 mps 723 mmHg 32%
    23:00 +29°C° 0 mm 3 mps 723 mmHg 33%

    Day after tomorrow, 23 July, Sunday

    Time Temperature Precipitation Wind Pressure Humidity
    00:00 +28°C° 0 mm 2 mps 723 mmHg 34%
    01:00 +27°C° 0 mm 2 mps 723 mmHg 34%
    02:00 +27°C° 0 mm 2 mps 723 mmHg 35%
    03:00 +26°C° 0 mm 1 mps 722 mmHg 35%
    04:00 +26°C° 0 mm 2 mps 722 mmHg 35%
    05:00 +27°C° 0 mm 2 mps 722 mmHg 36%
    06:00 +27°C° 0 mm 2 mps 722 mmHg 36%
    07:00 +29°C° 0 mm 2 mps 722 mmHg 32%
    08:00 +30°C° 0 mm 2 mps 722 mmHg 29%
    09:00 +32°C° 0 mm 2 mps 722 mmHg 26%
    10:00 +34°C° 0 mm 2 mps 721 mmHg 25%
    11:00 +35°C° 0 mm 2 mps 721 mmHg 24%
    12:00 +36°C° 0 mm 2 mps 721 mmHg 23%
    13:00 +37°C° 0 mm 2 mps 720 mmHg 22%
    14:00 +38°C° 0 mm 2 mps 720 mmHg 22%
    15:00 +38°C° 0 mm 3 mps 720 mmHg 21%
    16:00 +38°C° 0 mm 2 mps 720 mmHg 22%
    17:00 +37°C° 0 mm 2 mps 720 mmHg 24%
    18:00 +37°C° 0 mm 2 mps 720 mmHg 25%
    19:00 +35°C° 0 mm 2 mps 720 mmHg 26%
    20:00 +32°C° 0 mm 2 mps 721 mmHg 28%
    21:00 +30°C° 0 mm 2 mps 721 mmHg 29%
    22:00 +29°C° 0 mm 2 mps 721 mmHg 30%
    23:00 +29°C° 0 mm 2 mps 721 mmHg 30%

    24 July, Monday

    Time Temperature Precipitation Wind Pressure Humidity
    00:00 +28°C° 0 mm 1 mps 722 mmHg 31%
    01:00 +27°C° 0 mm 2 mps 722 mmHg 32%
    02:00 +27°C° 0 mm 2 mps 722 mmHg 33%
    03:00 +26°C° 0 mm 2 mps 722 mmHg 34%
    04:00 +26°C° 0 mm 2 mps 722 mmHg 36%
    05:00 +27°C° 0 mm 2 mps 722 mmHg 38%
    06:00 +27°C° 0 mm 2 mps 722 mmHg 40%
    07:00 +28°C° 0 mm 2 mps 722 mmHg 37%
    08:00 +30°C° 0 mm 2 mps 722 mmHg 33%
    09:00 +32°C° 0 mm 2 mps 722 mmHg 30%
    10:00 +34°C° 0 mm 2 mps 722 mmHg 29%
    11:00 +35°C° 0 mm 3 mps 722 mmHg 27%
    12:00 +37°C° 0 mm 3 mps 721 mmHg 25%
    13:00 +37°C° 0 mm 4 mps 721 mmHg 25%
    14:00 +38°C° 0 mm 4 mps 721 mmHg 25%
    15:00 +40°C° 0 mm 5 mps 720 mmHg 24%
    16:00 +39°C° 0 mm 5 mps 720 mmHg 26%
    17:00 +37°C° 0 mm 5 mps 720 mmHg 28%
    18:00 +37°C° 0 mm 5 mps 720 mmHg 30%
    19:00 +35°C° 0 mm 4 mps 721 mmHg 33%
    20:00 +33°C° 0 mm 4 mps 721 mmHg 36%
    21:00 +30°C° 0 mm 4 mps 722 mmHg 38%
    22:00 +30°C° 0 mm 4 mps 722 mmHg 40%
    23:00 +29°C° 0 mm 3 mps 722 mmHg 41%

    25 July, Tuesday

    Time Temperature Precipitation Wind Pressure Humidity
    00:00 +28°C° 0 mm 3 mps 722 mmHg 42%
    01:00 +27°C° 0 mm 3 mps 722 mmHg 43%
    02:00 +27°C° 0 mm 2 mps 721 mmHg 44%
    03:00 +26°C° 0 mm 2 mps 721 mmHg 44%
    04:00 +26°C° 0 mm 2 mps 721 mmHg 44%
    05:00 +27°C° 0 mm 2 mps 721 mmHg 43%
    06:00 +27°C° 0 mm 1 mps 722 mmHg 43%
    07:00 +28°C° 0 mm 2 mps 721 mmHg 39%
    08:00 +30°C° 0 mm 2 mps 721 mmHg 36%
    09:00 +32°C° 0 mm 2 mps 721 mmHg 33%
    10:00 +34°C° 0 mm 2 mps 721 mmHg 31%
    11:00 +35°C° 0 mm 2 mps 720 mmHg 29%
    12:00 +36°C° 0 mm 3 mps 720 mmHg 28%
    13:00 +37°C° 0 mm 3 mps 719 mmHg 27%
    14:00 +38°C° 0 mm 3 mps 719 mmHg 26%
    15:00 +38°C° 0 mm 3 mps 719 mmHg 26%
    16:00 +38°C° 0 mm 3 mps 719 mmHg 27%
    17:00 +37°C° 0 mm 3 mps 719 mmHg 29%
    18:00 +37°C° 0 mm 3 mps 719 mmHg 30%
    19:00 +35°C° 0 mm 3 mps 719 mmHg 32%
    20:00 +33°C° 0 mm 3 mps 720 mmHg 34%
    21:00 +31°C° 0 mm 3 mps 720 mmHg 37%
    22:00 +30°C° 0 mm 3 mps 720 mmHg 38%
    23:00 +29°C° 0 mm 2 mps 720 mmHg 39%

    26 July, Wednesday

    Time Temperature Precipitation Wind Pressure Humidity
    00:00 +28°C° 0 mm 2 mps 720 mmHg 40%
    01:00 +28°C° 0 mm 2 mps 720 mmHg 41%
    02:00 +27°C° 0 mm 2 mps 720 mmHg 41%
    03:00 +27°C° 0 mm 1 mps 720 mmHg 42%
    04:00 +27°C° 0 mm 2 mps 721 mmHg 41%
    05:00 +27°C° 0 mm 2 mps 721 mmHg 41%
    06:00 +28°C° 0 mm 2 mps 721 mmHg 40%
    07:00 +29°C° 0 mm 3 mps 721 mmHg 36%
    08:00 +31°C° 0 mm 3 mps 721 mmHg 32%
    09:00 +34°C° 0 mm 3 mps 721 mmHg 28%
    10:00 +35°C° 0 mm 2 mps 721 mmHg 27%
    11:00 +36°C° 0 mm 2 mps 720 mmHg 26%
    12:00 +37°C° 0 mm 2 mps 720 mmHg 25%
    13:00 +38°C° 0 mm 2 mps 720 mmHg 25%
    14:00 +39°C° 0 mm 2 mps 720 mmHg 25%
    15:00 +39°C° 0 mm 2 mps 720 mmHg 24%
    16:00 +39°C° 0.1 mm 2 mps 720 mmHg 26%
    17:00 +38°C° 0.1 mm 2 mps 720 mmHg 28%
    18:00 +38°C° 0.1 mm 2 mps 720 mmHg 30%
    19:00 +36°C° 0 mm 3 mps 721 mmHg 33%
    20:00 +34°C° 0 mm 3 mps 721 mmHg 36%
    21:00 +31°C° 0 mm 3 mps 722 mmHg 39%
    22:00 +30°C° 0 mm 3 mps 722 mmHg 41%
    23:00 +30°C° 0 mm 3 mps 722 mmHg 42%
    Show more